Tracking 28790 objects as of 19-Apr-2024
HD Live streaming from Space Station
objects crossing your sky now

FENGYUN 1C DEB

Track FENGYUN 1C DEB now!
10-day predictions


NORAD ID: 30156
Int'l Code: 1999-025TM
Perigee: 831.0 km
Apogee: 1,133.2 km
Inclination: 98.9 °
Period: 104.6 minutes
Semi major axis: 7353 km
RCS: 0.0603 m2 (small)
Launch date: May 10, 1999
Source: People's Republic of China (PRC)
Launch site: Taiyaun Space Center, China (TSC)

Note: This is SATELLITE DEBRIS
Your satellite tracking list
Your tracking list is empty




NASA's NSSDC Master Catalog

Two Line Element Set (TLE):
1 30156U 99025TM  24109.94420378  .00005001  00000-0  43763-2 0  9994
2 30156  98.8747 107.3998 0205539  76.6861 317.2300 13.76886270863826
Source of the keplerian elements: AFSPC